Location: Bishopstone
(51.0167°N, 1.9000°W)
Time: 06:15:59
(UTC+00:00)

Cosmos 1603 - Pass Details

Date: 16 September 2019
Orbit: 831 x 860 km, 71.0° (Epoch: 19 October)

Event Time Altitude Azimuth Distance (km) Brightness Sun altitude
Rises 22:16:36 0° 329° (NNW) 3,405 8.0 -31.9°
Reaches altitude 10° 22:19:03 10° 328° (NNW) 2,471 7.0 -32.1°
Enters shadow 22:23:23 53° 312° (NW) 1,035 4.3 -32.5°
